This is the latest recevied weather packets stored in our database for station/object OE9XVI-6. If no packets are shown the sender has not sent any weather packets the latest 10 day(s).
| Time | Temp. | Humidity | Pressure | Rain* | Wind** | Luminosity | Snow |
|---|---|---|---|---|---|---|---|
| 1777456030 | 11.11° C | 84% | 1019.8 hPa | 0 mm | - | - | - |
| 1777455430 | 10.56° C | 85% | 1019.6 hPa | 0 mm | - | - | - |
| 1777454831 | 11.11° C | 85% | 1019.8 hPa | 0 mm | - | - | - |
| 1777454231 | 10.56° C | 83% | 1019.7 hPa | 0 mm | - | - | - |
| 1777453630 | 10.56° C | 85% | 1019.7 hPa | 0 mm | - | - | - |
| 1777453030 | 10° C | 86% | 1019.7 hPa | 0 mm | - | - | - |
| 1777452430 | 10° C | 85% | 1019.6 hPa | 0 mm | - | - | - |
| 1777451831 | 9.44° C | 85% | 1019.7 hPa | 0 mm | - | - | - |
| 1777451230 | 9.44° C | 87% | 1019.7 hPa | 0 mm | - | - | - |
| 1777450631 | 8.89° C | 87% | 1019.7 hPa | 0 mm | - | - | - |
| 1777450031 | 8.89° C | 88% | 1019.6 hPa | 0 mm | - | - | - |
| 1777449431 | 8.89° C | 87% | 1019.8 hPa | 0 mm | - | - | - |
| 1777448831 | 8.89° C | 88% | 1019.6 hPa | 0 mm | - | - | - |
| 1777448231 | 8.33° C | 86% | 1019.5 hPa | 0 mm | - | - | - |
| 1777447631 | 8.33° C | 89% | 1019.5 hPa | 0 mm | - | - | - |
| 1777447031 | 8.33° C | 89% | 1019.5 hPa | 0 mm | - | - | - |
| 1777446431 | 8.33° C | 89% | 1019.3 hPa | 0 mm | - | - | - |
| 1777445831 | 8.33° C | 88% | 1019.2 hPa | 0 mm | - | - | - |
| 1777445231 | 8.33° C | 89% | 1019.2 hPa | 0 mm | - | - | - |
| 1777444631 | 8.33° C | 89% | 1019.2 hPa | 0 mm | - | - | - |
| 1777444031 | 8.33° C | 89% | 1018.9 hPa | 0 mm | - | - | - |
| 1777443431 | 8.33° C | 89% | 1018.9 hPa | 0 mm | - | - | - |
| 1777442831 | 8.33° C | 89% | 1018.9 hPa | 0 mm | - | - | - |
| 1777442231 | 8.33° C | 89% | 1018.8 hPa | 0 mm | - | - | - |
| 1777441631 | 8.33° C | 87% | 1018.6 hPa | 0 mm | - | - | - |
* Rain latest hour (hover to see other rain measurements)
** Current wind speed in m/s (hover to see current wind gust speed)